TRA11L EHEH-LEPA

Flight info

Callsign TRA11L
Flight time N/A
Altitude 37000
Route WOODY N872 CIV DCT MEDIL DCT KOVIN DCT DUCRA DCT RESMI DCT DEKOD DCT DISAK DCT DIRMO DCT VALKU DCT ATSUP DCT MINSO DCT DEGOL DCT PPG DCT ALBER DCT GIR DCT NENDA P84 LORES
Aircraft A21N/M-SBDE2E3FGHIJ1J5M1P2RWXYZ/LB1D1G1

Departure

Time 2026-05-01 14:28
Airport Eindhoven Airport (EHEH)

Arrival

Time N/A
Airport Palma de Mallorca Airport (LEPA)
Time Latitude Longitude Altitude Speed Heading
2026-05-01 13:59 51.45789 5.38971 80 ft 0 kts 125°
2026-05-01 14:20 51.45791 5.38968 80 ft 2 kts 125°
2026-05-01 14:20 51.45812 5.38893 80 ft 4 kts 94°
2026-05-01 14:20 51.45808 5.38855 80 ft 4 kts 50°
2026-05-01 14:21 51.45800 5.38843 80 ft 1 kts 34°
2026-05-01 14:21 51.45799 5.38842 84 ft 0 kts 34°
2026-05-01 14:23 51.45800 5.38842 80 ft 1 kts 34°
2026-05-01 14:23 51.45812 5.38856 80 ft 4 kts 34°
2026-05-01 14:24 51.45843 5.38891 85 ft 8 kts 34°
2026-05-01 14:24 51.45891 5.38944 81 ft 9 kts 33°
2026-05-01 14:24 51.45952 5.38988 80 ft 6 kts 14°
2026-05-01 14:24 51.45987 5.38950 83 ft 7 kts 302°
2026-05-01 14:25 51.46020 5.38873 80 ft 9 kts 306°
2026-05-01 14:25 51.46061 5.38782 84 ft 11 kts 306°
2026-05-01 14:25 51.46102 5.38678 80 ft 11 kts 266°
2026-05-01 14:25 51.46070 5.38632 80 ft 6 kts 210°
2026-05-01 14:26 51.46039 5.38601 80 ft 0 kts 216°
2026-05-01 14:27 51.46026 5.38585 83 ft 16 kts 216°
2026-05-01 14:28 51.45030 5.37471 83 ft 150 kts 214°
2026-05-01 14:28 51.44119 5.36436 442 ft 161 kts 214°
2026-05-01 14:28 51.43221 5.35394 1056 ft 164 kts 213°
2026-05-01 14:28 51.42422 5.33975 1508 ft 186 kts 245°
2026-05-01 14:29 51.42425 5.31817 1969 ft 210 kts 294°
2026-05-01 14:29 51.43469 5.30097 2452 ft 232 kts 336°
2026-05-01 14:30 51.48333 5.27654 4952 ft 253 kts 325°
2026-05-01 14:30 51.49497 5.25482 5673 ft 264 kts 291°
2026-05-01 14:30 51.49946 5.22532 6153 ft 280 kts 277°
2026-05-01 14:31 51.50828 5.16319 7899 ft 289 kts 281°
2026-05-01 14:31 51.51340 5.13175 8793 ft 294 kts 281°
2026-05-01 14:31 51.51871 5.09991 9684 ft 298 kts 282°
2026-05-01 14:31 51.52407 5.06745 10479 ft 305 kts 279°
2026-05-01 14:32 51.52457 5.03285 10874 ft 320 kts 256°
2026-05-01 14:32 51.51879 4.99743 11286 ft 337 kts 250°
2026-05-01 14:32 51.51183 4.96096 12003 ft 344 kts 250°
2026-05-01 14:32 51.50491 4.92389 12802 ft 349 kts 250°
2026-05-01 14:33 51.49808 4.88626 13608 ft 353 kts 251°
2026-05-01 14:33 51.49130 4.84825 14398 ft 356 kts 251°
2026-05-01 14:33 51.48449 4.80978 15168 ft 360 kts 251°
2026-05-01 14:33 51.47764 4.77089 15895 ft 364 kts 251°
2026-05-01 14:34 51.47071 4.73160 16607 ft 368 kts 251°
2026-05-01 14:34 51.46378 4.69242 17298 ft 372 kts 251°
2026-05-01 14:34 51.45659 4.65187 17977 ft 376 kts 251°
2026-05-01 14:34 51.44950 4.61190 18629 ft 379 kts 251°
2026-05-01 14:35 51.44215 4.57057 19268 ft 383 kts 252°
2026-05-01 14:35 51.43490 4.52991 19888 ft 386 kts 252°
2026-05-01 14:35 51.42750 4.48843 20472 ft 390 kts 252°
2026-05-01 14:35 51.41960 4.44670 21047 ft 393 kts 248°
2026-05-01 14:36 51.40813 4.40700 21600 ft 394 kts 237°
2026-05-01 14:36 51.39188 4.37177 22138 ft 395 kts 225°
2026-05-01 14:36 51.37136 4.34264 22668 ft 396 kts 214°
2026-05-01 14:36 51.34750 4.32053 23154 ft 398 kts 204°
2026-05-01 14:37 51.32230 4.30176 23651 ft 401 kts 203°
2026-05-01 14:37 51.29677 4.28313 24150 ft 405 kts 204°
2026-05-01 14:37 51.27110 4.26405 24621 ft 409 kts 204°
2026-05-01 14:37 51.24529 4.24464 25095 ft 412 kts 204°
2026-05-01 14:38 51.21933 4.22501 25574 ft 414 kts 204°
2026-05-01 14:38 51.19320 4.20524 26030 ft 417 kts 204°
2026-05-01 14:38 51.16677 4.18577 26479 ft 419 kts 201°
2026-05-01 14:38 51.13939 4.16951 26906 ft 421 kts 198°
2026-05-01 14:39 51.11158 4.15424 27325 ft 424 kts 198°
2026-05-01 14:39 51.08359 4.13904 27737 ft 426 kts 198°
2026-05-01 14:39 51.05544 4.12373 28129 ft 428 kts 198°
2026-05-01 14:39 51.02721 4.10833 28504 ft 430 kts 198°
2026-05-01 14:40 50.99882 4.09284 28866 ft 433 kts 198°
2026-05-01 14:40 50.97026 4.07726 29223 ft 435 kts 198°
2026-05-01 14:40 50.94162 4.06164 29554 ft 437 kts 198°
2026-05-01 14:40 50.91281 4.04596 29904 ft 438 kts 198°
2026-05-01 14:41 50.88392 4.03014 30239 ft 441 kts 199°
2026-05-01 14:41 50.85567 4.01264 30564 ft 443 kts 201°
2026-05-01 14:41 50.82706 3.99431 30871 ft 444 kts 201°
2026-05-01 14:41 50.79837 3.97588 31221 ft 445 kts 201°
2026-05-01 14:42 50.76969 3.95745 31545 ft 446 kts 201°
2026-05-01 14:42 50.74091 3.93899 31873 ft 446 kts 201°
2026-05-01 14:42 50.71214 3.92062 32251 ft 445 kts 201°
2026-05-01 14:42 50.68348 3.90235 32611 ft 444 kts 201°
2026-05-01 14:43 50.65486 3.88412 32947 ft 443 kts 201°
2026-05-01 14:43 50.62625 3.86596 33239 ft 443 kts 201°
2026-05-01 14:43 50.59766 3.84782 33555 ft 443 kts 201°
2026-05-01 14:43 50.56916 3.82946 33853 ft 442 kts 202°
2026-05-01 14:44 50.54096 3.81025 34144 ft 441 kts 202°
2026-05-01 14:44 50.48467 3.77183 34683 ft 441 kts 202°
2026-05-01 14:44 50.45660 3.75270 34940 ft 440 kts 202°
2026-05-01 14:45 50.42851 3.73359 35187 ft 439 kts 202°
2026-05-01 14:45 50.37248 3.69553 35634 ft 438 kts 202°
2026-05-01 14:45 50.34449 3.67658 35840 ft 438 kts 202°
2026-05-01 14:46 50.31653 3.65766 36049 ft 438 kts 202°
2026-05-01 14:46 50.26062 3.61989 36436 ft 437 kts 202°
2026-05-01 14:46 50.23269 3.60105 36615 ft 437 kts 202°
2026-05-01 14:47 50.20480 3.58227 36867 ft 435 kts 202°
2026-05-01 14:47 50.17714 3.56366 37150 ft 431 kts 202°
2026-05-01 14:47 50.14961 3.54515 37260 ft 430 kts 202°
2026-05-01 14:48 50.09475 3.50839 37247 ft 428 kts 202°
2026-05-01 14:48 50.01272 3.45361 37230 ft 428 kts 202°
2026-05-01 14:49 49.90332 3.38081 37226 ft 428 kts 202°
2026-05-01 14:50 49.79386 3.30841 37230 ft 427 kts 202°
2026-05-01 14:51 49.71195 3.25443 37229 ft 427 kts 202°
2026-05-01 14:52 49.63054 3.20095 37229 ft 426 kts 202°
2026-05-01 14:53 49.54871 3.14743 37233 ft 426 kts 202°
2026-05-01 14:53 49.49427 3.11158 37220 ft 425 kts 204°
2026-05-01 14:54 49.44359 3.06420 37220 ft 427 kts 212°
2026-05-01 14:54 49.39423 3.01351 37220 ft 426 kts 212°
2026-05-01 14:55 49.34479 2.96320 37212 ft 426 kts 212°
2026-05-01 14:55 49.29534 2.91317 37212 ft 426 kts 212°
2026-05-01 14:56 49.25385 2.87132 37212 ft 426 kts 212°
2026-05-01 14:56 49.20468 2.82181 37213 ft 426 kts 212°
2026-05-01 14:57 49.15516 2.77209 37202 ft 425 kts 211°
2026-05-01 14:57 49.08094 2.69774 37203 ft 425 kts 211°
2026-05-01 14:58 49.03147 2.64837 37201 ft 425 kts 211°
2026-05-01 14:58 48.98201 2.59914 37200 ft 425 kts 211°
2026-05-01 14:59 48.93248 2.54994 37200 ft 425 kts 211°
2026-05-01 14:59 48.88293 2.50082 37202 ft 425 kts 211°
2026-05-01 15:00 48.80859 2.42737 37196 ft 425 kts 211°
2026-05-01 15:01 48.75899 2.37851 37202 ft 425 kts 211°
2026-05-01 15:01 48.70938 2.32975 37203 ft 425 kts 211°
2026-05-01 15:02 48.65981 2.28112 37206 ft 425 kts 211°
2026-05-01 15:02 48.61020 2.23262 37209 ft 425 kts 211°
2026-05-01 15:03 48.55900 2.19015 37211 ft 422 kts 198°
2026-05-01 15:03 48.50202 2.16944 37227 ft 421 kts 190°
2026-05-01 15:04 48.44473 2.15174 37230 ft 420 kts 191°
2026-05-01 15:04 48.38744 2.13347 37225 ft 421 kts 191°
2026-05-01 15:05 48.33024 2.11507 37221 ft 420 kts 191°
2026-05-01 15:05 48.27258 2.10309 37219 ft 419 kts 178°
2026-05-01 15:06 48.21476 2.11342 37221 ft 419 kts 171°
2026-05-01 15:06 48.15714 2.12633 37220 ft 419 kts 171°
2026-05-01 15:07 48.09910 2.13381 37221 ft 419 kts 177°
2026-05-01 15:07 48.04086 2.13705 37221 ft 419 kts 177°
2026-05-01 15:08 47.98260 2.14035 37222 ft 419 kts 177°
2026-05-01 15:08 47.92438 2.14381 37231 ft 419 kts 177°
2026-05-01 15:09 47.86625 2.15021 37231 ft 419 kts 174°
2026-05-01 15:09 47.80826 2.15868 37234 ft 419 kts 174°
2026-05-01 15:10 47.75018 2.16673 37236 ft 419 kts 174°
2026-05-01 15:10 47.66299 2.17873 37230 ft 420 kts 174°
2026-05-01 15:11 47.57574 2.19073 37231 ft 420 kts 175°
2026-05-01 15:12 47.51753 2.19867 37232 ft 421 kts 175°
2026-05-01 15:12 47.43010 2.21062 37230 ft 421 kts 175°
2026-05-01 15:14 47.28456 2.23049 37232 ft 422 kts 175°
2026-05-01 15:14 47.19677 2.24239 37233 ft 423 kts 175°
2026-05-01 15:15 47.07875 2.25829 37212 ft 429 kts 177°
2026-05-01 15:16 46.95987 2.27433 37211 ft 429 kts 177°
2026-05-01 15:18 46.81108 2.29419 37211 ft 430 kts 177°
2026-05-01 15:19 46.69192 2.31002 37211 ft 430 kts 177°
2026-05-01 15:19 46.60243 2.32178 37211 ft 430 kts 177°
2026-05-01 15:20 46.51292 2.33367 37212 ft 430 kts 177°
2026-05-01 15:21 46.45321 2.34154 37210 ft 431 kts 178°
2026-05-01 15:21 46.39350 2.34935 37220 ft 431 kts 178°
2026-05-01 15:22 46.30395 2.36098 37216 ft 431 kts 178°
2026-05-01 15:22 46.24460 2.36878 37211 ft 431 kts 178°
2026-05-01 15:23 46.18484 2.37656 37211 ft 431 kts 178°
2026-05-01 15:23 46.12515 2.38436 37211 ft 431 kts 178°
2026-05-01 15:24 46.06541 2.39211 37211 ft 431 kts 178°
2026-05-01 15:24 46.00570 2.39987 37209 ft 431 kts 178°
2026-05-01 15:25 45.94592 2.40755 37210 ft 432 kts 178°
2026-05-01 15:25 45.88609 2.41524 37211 ft 432 kts 178°
2026-05-01 15:26 45.82623 2.42295 37210 ft 432 kts 178°
2026-05-01 15:26 45.76640 2.43066 37210 ft 432 kts 178°
2026-05-01 15:27 45.70660 2.43827 37220 ft 432 kts 178°
2026-05-01 15:28 45.61686 2.44974 37231 ft 432 kts 178°
2026-05-01 15:28 45.55695 2.45740 37227 ft 432 kts 178°
2026-05-01 15:29 45.46709 2.46876 37231 ft 432 kts 178°
2026-05-01 15:30 45.34725 2.48387 37242 ft 433 kts 178°
2026-05-01 15:31 45.16742 2.50642 37251 ft 433 kts 177°
2026-05-01 15:32 45.04745 2.52161 37260 ft 433 kts 177°
2026-05-01 15:34 44.86748 2.54396 37260 ft 433 kts 177°